DECAYED

STARLINK-1186, 45099 (Decayed)

Orbit data source: Space-Track

STARLINK-1186, 45099 was a payload satellite owned by SpaceX/Seattle (US) in LEO that was launched on Wed, 29 Jan 2020 UTC via an FALCON 9 launch vehicle from the Air Force Eastern Test Range (AFETR). Payload-class satellites include a variety of spacecraft equipped with specific instruments for various scientific and technological missions. These include communications satellites like Starlink; space stations such as the ISS; scientific satellites like the Hubble; Earth observation satellites from companies like Planet Labs, Umbra, and HawkEye 360; GPS; miniature CubeSats for education and research; and military/defense satellites.

Not visible in the next 10 days
Identifier
45099, 2020-006BH
Orbit
Decayed
Country
Flag of USUS
Related business
Manufacturer
SpaceX/Seattle
Mission
Decayed Commercial Communications
Bus & Motor
STARLINK, Unknown motor
Mass
260 kg wet, ~248 kg dry
Launch date (UTC)
2020-01-29 (6 years ago)
Launch vehicle
FALCON 9
Launch site
Air Force Eastern Test Range (AFETR)
Object type
Payload
Rocket body
Debris
Shape & HBR
Box + 1 Pan, 4.4 m
Radar Cross Section
13.562 m², Large (>1 m²)

Expand to show TLE details & history
Last TLE update: 7 months ago

TLE from 7 months ago
0 STARLINK-1186
1 45099U 20006BH  25043.78709733  .11584837  12500-4  44533-3 0  9994
2 45099  53.0203 154.5510 0003460 296.6714 205.3999 16.44022240279191
Epoch: 2025-02-12T18:53Z
TLE epoch observation values (Epoch: 2025-02-12T18:53:25.209Z)
Latitude
29.51622°
Longitude
-116.95455°
Altitude
158.778 km
Speed
7.814 km/s
True Right ascension
20h 37m 53s
True Declination
29° 21' 20"
Sunlit
Object was in daylight at epoch
Visualization orbit readout
Latitude
Unknown
Longitude
Unknown
Altitude
Unknown
Speed
Unknown
Apparent Right ascension
Unknown
Apparent Declination
Unknown
Sunlit
N/A
Visualization observer readout
Local Sidereal Time
09:29:00
Azimuth
Unknown
Elevation
Unknown
Doppler factor
Unknown
Orbital elements
Apogee altitude
157.677 km
Perigee altitude
153.156 km
Semi-major axis
6,533.554 km
Eccentricity
0.00035
Inclination
53.0203°
RAAN
154.551°
Arg. of periapsis
296.6714°
True anomaly
205.3829°
Mean anomaly
205.3999°
Eccentric anomaly
205.3914°
Mean motion
4.10978 °/min
Orbital period
87.6 mins
BSTAR
0.00044533
Loading maneuver chart data...
Computing Atmospheric mass density...

Documentation

Showing up to 5 results
|